Hourly Data Report for October 05, 2015

All times are specified in Local Standard Time (LST). Add 1 hour to adjust for Daylight Saving Time where and when it is observed.

EUREKA CLIMATE
NUNAVUT

79°59'21.000" N
85°56'02.000" W
10.00 m
2401199
71613
NEK

Download Data

Hourly Data (October 2015)
Hourly Data Report for October 5, 2015
Temp Definition
°C
Dew Point Temp Definition
°C
Rel Hum Definition
%
Wind Dir Definition
10's deg

Wind Spd Definition
km/h
Visibility Definition
km
Stn Press Definition
kPa
Hmdx Definition


Wind Chill Definition


Weather Definition


TIME
00:00 -9.1 -10.5 89 3 7   100.85   -13 LegendNANA
01:00 -10.4 -12.0 88 2 14   100.85   -17 LegendNANA
02:00 -10.4 -11.9 88 4 8   100.86   -15 LegendNANA
03:00 -11.9 -13.5 88 3 8   100.86   -17 LegendNANA
04:00 -12.9 -14.8 86 3 10   100.82   -19 LegendNANA
05:00 -12.5 -14.3 86 4 9   100.82   -18 LegendNANA
06:00 -12.2 -13.8 88 5 6   100.82   -16 LegendNANA
07:00 -14.8 -16.3 88 3 10   100.77   -21 LegendNANA
08:00 -12.7 -14.3 88 11 6   100.74   -17 LegendNANA
09:00 -14.1 -15.5 89 12 6   100.71   -18 LegendNANA
10:00 -14.4 -16.4 85 6 5   100.68   -18 LegendNANA
11:00 -14.0 -15.8 86 12 5   100.64   -17 LegendNANA
12:00 -14.9 -17.0 84 8 4   100.61   -18 LegendNANA
13:00 -14.0 -16.6 80 11 7   100.59   -19 LegendNANA
14:00 -15.0 -16.3 89 4 8   100.55   -20 LegendNANA
15:00 -15.0 -16.5 88 8 3   100.54   -17 LegendNANA
16:00 -14.9 -16.1 90 9 3   100.50   -17 LegendNANA
17:00 -15.3 -16.7 89 9 6   100.45   -20 LegendNANA
18:00 -16.0 -17.5 88 4 8   100.41   -22 LegendNANA
19:00 -15.8 -16.6 93 6 3   100.37   -18 LegendNANA
20:00 -15.1 -16.1 92 9 6   100.37   -19 LegendNANA
21:00 -16.0 -17.0 92 6 4   100.34   -19 LegendNANA
22:00 -17.0 -18.3 90 4 6   100.33   -22 LegendNANA
23:00 -17.1 -18.5 89 9 4   100.33   -20 LegendNANA

Notes on Data Quality.

Legend

  • E = Estimated
  • M = Missing
  • NA = Not Available
  • ‡ = Partner data that is not subject to review by the National Climate Archives
Date modified: